Location: Unspecified
(0.0000°N, 0.0000°E)
Time: 18:24:33
(UTC+00:00)

STARLINK-32465 - Visible Passes

Search period start: 07 December 2025 00:00
Search period end: 17 December 2025 00:00
Orbit: 474 x 476 km, 53.2° (Epoch: 06 December)

Date Brightness Start Highest point End Pass type
(mag) Time Alt. Az. Time Alt. Az. Time Alt. Az.
07 Dec 4.3 18:19:18 10° NW 18:22:54 51° SW 18:26:30 10° SSE visible
10 Dec 3.4 05:05:34 10° SSW 05:09:15 82° ESE 05:12:56 10° NE visible
11 Dec 3.8 04:36:06 10° SSW 04:39:45 62° SE 04:43:24 10° NE visible
12 Dec 4.2 04:08:11 22° S 04:10:16 48° SE 04:13:50 10° NE visible
